Regional Weather Roundup
Issued by NWS Charleston, SC

Current Version | Previous Version | Graphics & Text | Print | Product List | Glossary On
Versions: 1 2 3 4 5 6 7 8 9 10 11 12 13 14 15 16 17 18 19 20 21 22 23 24 25 26 27 28 29 30 31 32 33 34 35 36 37 38 39 40 41 42 43 44 45 46 47 48 49 50
000 ASUS42 KCHS 181412 RWRCHS Regional Weather Roundup National Weather Service Charleston SC 900 AM EST THU JAN 18 2018 NOTE: "fair" indicates few or no clouds below 12,000 feet with no significant weather and/or obstructions to visibility. Not all stations are quality controlled. Use data with caution, especially dewpoint observations. SCZ027-030-031-034>040-042>050-181500- ...Southeast South Carolina... CITY SKY/WX TMP DP RH WIND PRES REMARKS N Charleston FAIR 28 12 51 NW14G22 30.41R WCI 17 Waterfront Prk NOT AVBL Mount Pleasant FAIR 30 14 51 NW13 30.40R WCI 20 Johns Island FAIR 28 10 47 NW15 30.40S WCI 17 Pinopolis N/A 27 16 63 NW12 30.33R WCI 16 Moncks Corner FAIR 27 10 50 NW6 30.41S HAZE WCI 20 Summerville FAIR 27 14 59 NW7 30.44R WCI 19 Beaufort MCAS FAIR 28 12 51 NW15 30.42S WCI 16 Beaufort Arpt FAIR 28 12 50 N13 30.42S WCI 18 Hilton Head Is SUNNY 28 12 50 NW14 30.41S WCI 17 Walterboro FAIR 27 12 54 NW8 30.44R WCI 18 Allendale FAIR 25 12 58 VRB6 30.43R WCI 18 ...Southern Midlands and Pee Dee... CITY SKY/WX TMP DP RH WIND PRES REMARKS Georgetown FAIR 27 10 50 NW10G20 30.40R WCI 17 Kingstree FAIR 23 12 63 W9 30.41R WCI 13 Orangeburg FAIR 23 12 62 NW7 30.42R WCI 15 Barnwell NOT AVBL Aiken FAIR 23 14 68 W7 30.43R WCI 15 Manning FAIR 27 12 54 MISG 30.42R Columbia FAIR 27 13 55 W7 30.41R WCI 19 Sumter FAIR 23 12 63 W9 30.38R WCI 13 Florence FAIR 23 11 60 NW10 30.39R WCI 12 Myrtle Beach FAIR 25 13 60 NW12 30.37 WCI 14 N Myrtle Beach FAIR 25 13 60 N10G16 30.33R WCI 15 $$ GAZ063-065-086>088-099>101-113>116-118-119-134>141-150-181500- ...Southeast Georgia... CITY SKY/WX TMP DP RH WIND PRES REMARKS Savannah Arpt FAIR 28 11 48 NW13 30.44R WCI 17 Hunter AAF FAIR 28 11 48 NW12 30.40S WCI 18 Fort Stewart FAIR 27 11 51 N10 30.42R WCI 17 Statesboro FAIR 26 10 51 NW13 30.44R WCI 15 Sylvania FAIR 26 15 61 N7 30.45R WCI 19 Claxton FAIR 27 14 58 W5 30.45R WCI 22 ...CSRA, Central and far Southeast Georgia... CITY SKY/WX TMP DP RH WIND PRES REMARKS Thomson FAIR 21 10 61 N6 30.48R WCI 13 Augusta-Bush FAIR 25 12 58 NW6 30.44R WCI 18 Augusta-Daniel FAIR 25 10 53 NW7 30.43R WCI 17 Swainsboro FAIR 25 14 63 NW6 30.44S WCI 18 Vidalia FAIR 28 16 59 NW5 30.44R WCI 23 Eastman FAIR 24 8 49 NW3 30.48R Hazlehurst FAIR 26 8 48 N8 30.43S WCI 17 Alma FAIR 25 11 55 NW8 30.44R WCI 16 Waycross FAIR 26 9 49 N7 30.46R WCI 18 Jesup FAIR 27 10 50 N7 30.44R WCI 19 Baxley FAIR 25 10 54 N8 30.43R WCI 16 Brunswick FAIR 30 12 47 N9 30.45R WCI 22 Saint Simons FAIR 29 13 51 NW7 30.44R WCI 22 $$ SCZ027-028-034-036>038-045-046-048>050-GAZ119-141-181500- ...Lake and Supplemental Coastal Observations... STATION/POSITION TIME TEMP WIND PRES WAVE SWELL AIR SEA DIR/SP/G HT/PER HT/PER/DIR (UTC) (F) (DEG/KT/KT) (MB) (FT/S) (FT/S/D) Winyah Bay NOT AVBL Lake Murray 1320 23 280/ 6/ 13 1028.4 ACE Basin NERRS 1245 24 300/ 3 1029.0 Fort Pulaski 1348 27 45 340/ 12/ 15 1030.3R Sapelo Island 1300 26 340/ 11 1030.0 $$ ANZ835-935-AMZ111-154-330-350-352-354-370-450-454-472-181500- ...C-MAN and Buoy Observations... STATION/POSITION TIME TEMP WIND PRES WAVE SWELL AIR SEA DIR/SP/G HT/PER HT/PER/DIR (UTC) (F) (DEG/KT/KT) (MB) (FT/S) (FT/S/D) Buoy 41004 1400 35 67 330/ 21/ 27 1027.4 Buoy 41008 1350 33 51 350/ 23/ 27 1028.6R 5/ 5 2/ 60/11 Folly Beach CMAN 1400 28 340/ 9/ 14 1029.6R Capers Nearshore 1308 26 48 330/ 17/ 25 1028.2R Fripp Nearshore 1308 27 47 330/ 17/ 25 1028.6R STATION/POSITION TIME TEMP WIND PRES WAVE SWELL AIR SEA DIR/SP/G HT/PER HT/PER/DIR (UTC) (F) (DEG/KT/KT) (MB) (FT/S) (FT/S/D) 5E St. Marys GA 1400 49 N/A 4/ 5 2/ 90/12 Frying Pan Buoy 1350 33 65 330/ 19/ 25 1025.8R 8/ 6 2/110/11 Buoy 41025 1400 30 54 310/ 25/ 31 1020.8 Cape Lookout NC 1300 330/ 20/ 23 1023.0R Buoy 41002 1350 52 70 310/ 29/ 35 1018.2R 13/10 8/300/10 Buoy 41010 NOT AVBL St Augustine FL 1400 30 48 340/ 14/ 16 1029.9R $$

USA.gov is the U.S. government's official web portal to all federal, state and local government web resources and services.